Wind_Speed
42 43 43 44 45 46 47 48 49 49 48 49 51 51 52 52 54 55 55 55 56 58 59 60 61 62 63 63 63 63 63 63 63 64 64 65 65 65
43 44 44 45 47 48 49 49 51 52 52 51 52 52 53 54 56 56 57 58 59 60 61 62 63 64 64 65 65 65 65 65 65 65 65 65 64 64
44 45 46 47 48 49 50 51 52 54 54 52 53 54 55 56 57 58 59 60 61 62 64 65 65 66 66 66 67 67 67 66 66 65 64 63 63 63
45 46 47 47 48 50 51 52 53 55 55 54 54 56 57 58 59 59 60 62 63 64 65 66 66 66 67 67 67 67 65 64 64 64 64 63 63 62
46 47 47 48 50 51 52 53 54 55 56 56 56 58 59 60 60 61 62 63 64 65 65 65 66 65 65 65 65 64 64 63 63 63 63 63 62 61
47 47 49 50 51 52 53 54 55 56 57 58 58 59 60 61 61 62 62 63 64 64 65 65 65 65 64 64 63 63 63 62 62 61 61 60 59 58
48 49 50 51 52 53 54 55 57 57 58 59 60 60 60 61 61 62 63 63 64 64 64 64 64 64 63 62 62 61 61 60 59 58 56 54 53 52
49 50 51 52 53 54 55 57 58 59 59 60 61 61 61 61 62 63 63 64 64 64 64 63 63 62 61 60 59 59 58 57 55 52 50 48 47 46
50 51 52 53 54 55 56 57 58 59 60 61 61 61 62 62 63 63 64 64 64 64 64 62 60 59 58 57 56 55 54 52 49 47 46 45 44 43
51 52 53 54 55 56 57 58 59 60 61 62 62 62 63 63 64 65 65 65 64 63 63 60 58 56 55 54 53 51 49 47 45 44 43 42 40 39
52 53 53 54 55 57 58 59 59 60 61 61 62 62 63 64 65 65 65 65 63 61 59 58 56 54 52 51 49 47 45 43 42 40 39 38 37 36
52 53 54 55 56 58 59 59 60 60 61 61 62 63 64 64 65 65 64 63 61 58 56 55 54 52 48 46 45 43 41 39 38 36 35 34 34 34
52 54 55 56 57 58 59 59 60 60 61 62 62 63 64 64 64 64 62 60 58 57 55 53 50 48 45 42 40 39 36 35 34 33 33 32 32 32
53 55 56 57 58 59 59 60 60 61 62 62 63 63 64 63 63 61 59 57 56 55 53 50 47 44 42 39 36 35 33 32 32 31 31 30 30 29
54 55 56 57 58 59 59 60 61 62 63 63 63 63 63 62 60 58 56 55 53 51 48 45 43 41 39 36 34 32 31 30 30 29 28 27 26 24
55 56 57 58 59 59 59 61 62 63 63 63 63 62 61 59 57 55 53 52 49 46 43 42 40 38 36 34 32 30 29 28 27 26 25 23 22 21
55 56 57 57 58 58 60 61 62 62 62 62 61 60 58 56 54 51 49 47 44 41 39 38 37 35 33 31 30 29 28 27 25 23 21 20 19 18
55 56 57 57 58 59 60 61 61 61 60 60 59 57 55 52 50 48 46 44 40 37 36 35 34 33 31 29 28 27 26 24 22 20 18 17 16 15
56 56 57 58 58 60 60 60 59 58 58 57 56 54 51 49 47 45 43 40 37 35 35 34 32 31 29 28 26 25 23 21 19 17 16 14 13 13
56 57 57 58 59 59 59 57 56 56 55 54 53 51 49 47 45 43 40 37 35 33 33 32 31 29 26 25 23 22 20 18 16 15 14 13 12 11
56 57 58 58 58 57 56 54 53 53 53 52 50 49 47 44 41 39 37 34 33 32 31 30 28 26 24 22 20 18 17 15 14 12 11 11 10 10
56 57 58 57 56 55 53 52 52 52 51 50 48 46 44 41 39 37 34 32 30 30 29 27 25 23 21 19 17 16 14 13 11 10 10 9 9 8
56 57 56 55 54 53 51 50 50 49 48 47 45 43 41 39 36 34 31 29 29 28 26 25 23 21 19 17 15 14 12 10 9 9 9 8 8 7
Wind_Direction
303 304 304 305 305 306 306 306 306 306 306 306 304 304 303 302 301 301 301 300 299 298 298 297 297 296 295 294 293 292 290 289 288 286 285 283 282 280
302 303 304 305 305 306 306 306 305 306 306 306 304 304 303 302 302 302 301 300 299 299 298 298 297 296 296 294 293 292 291 290 288 287 286 284 282 280
302 303 304 304 305 306 306 306 306 306 306 306 305 304 303 303 302 302 301 301 300 299 298 298 298 297 296 295 294 293 292 290 289 288 286 284 282 281
302 302 303 304 305 305 306 306 306 306 306 306 305 304 303 303 302 302 301 301 300 300 299 299 298 297 296 295 294 293 292 290 289 288 286 285 283 282
301 302 303 304 305 305 305 306 306 306 306 306 306 305 304 303 303 303 302 302 301 301 300 300 299 298 297 296 296 294 292 292 290 289 287 285 284 282
302 303 304 304 305 305 305 306 306 306 306 306 306 305 305 304 304 304 303 303 302 302 302 301 299 299 298 297 296 295 294 293 292 290 289 286 285 282
302 303 304 304 305 306 306 306 306 307 307 307 307 306 305 305 304 304 304 304 304 303 303 301 300 300 299 298 297 296 295 294 293 292 290 287 285 282
302 303 304 305 305 306 306 306 307 307 307 307 307 307 306 306 306 306 306 305 305 304 303 302 301 301 300 299 298 297 296 295 294 292 290 288 285 283
302 303 303 304 305 306 306 307 307 307 307 308 308 308 307 307 307 307 307 307 306 305 305 304 302 302 301 300 299 299 298 296 294 292 290 289 286 284
302 303 303 304 305 306 306 307 308 308 308 308 308 308 308 308 308 308 308 307 307 307 306 305 304 303 302 301 300 299 298 297 295 293 291 289 287 285
303 303 304 305 306 306 307 308 308 309 309 309 308 308 309 309 309 308 309 308 308 307 307 306 305 304 303 302 300 299 298 297 296 294 292 290 289 287
303 304 305 306 307 307 308 308 309 309 309 309 309 309 310 310 309 309 309 309 309 308 307 307 306 305 304 303 301 300 299 298 296 295 294 292 290 288
304 305 306 307 307 308 308 309 309 309 309 309 310 310 310 310 310 310 309 309 309 309 308 307 307 306 305 304 302 301 300 299 297 297 297 295 292 289
304 305 306 307 307 308 308 309 309 310 311 311 311 311 311 310 310 310 310 309 309 309 308 308 308 307 306 305 304 302 300 299 298 298 298 296 294 292
304 306 306 307 308 308 309 309 310 311 311 311 311 311 311 311 310 310 310 310 310 310 309 309 309 308 306 305 304 302 301 301 300 300 299 297 296 294
304 306 306 307 308 309 310 310 311 311 311 311 311 312 311 311 311 310 310 310 311 311 310 310 310 309 307 306 305 304 303 302 301 300 299 297 296 295
305 306 307 308 309 310 310 311 311 311 312 312 312 312 312 312 312 311 311 311 311 311 310 310 310 310 308 307 307 306 305 303 303 301 299 298 296 295
305 307 308 309 310 310 311 311 312 312 313 313 314 314 313 313 313 312 312 312 312 311 311 311 310 310 309 308 308 307 306 306 305 304 302 300 298 297
306 307 308 310 310 311 312 312 313 313 314 315 315 315 315 315 314 313 313 312 311 311 311 311 311 310 309 308 308 308 307 306 305 304 304 302 300 300
306 307 309 310 311 312 312 313 313 314 315 315 315 315 316 315 314 314 313 312 311 311 311 312 311 310 309 309 309 310 309 307 305 304 304 305 304 304
306 308 309 310 311 312 312 313 314 314 315 315 315 315 316 316 315 315 314 312 311 312 312 313 313 312 311 311 311 311 310 308 306 304 305 306 306 304
306 308 309 310 311 312 312 313 314 315 315 316 316 315 315 315 315 314 313 312 312 313 313 313 313 312 312 311 311 311 310 309 307 308 311 310 307 303
306 308 309 310 310 311 312 313 314 315 316 316 316 316 316 315 315 314 313 312 312 313 314 314 313 312 311 310 309 309 308 307 307 310 313 313 312 312
Height
5701 5697 5692 5688 5683 5678 5672 5667 5663 5659 5656 5650 5644 5638 5631 5626 5620 5614 5608 5602 5596 5590 5585 5579 5573 5567 5562 5556 5551 5546 5541 5536 5532 5528 5524 5521 5518 5516
5691 5687 5682 5677 5672 5667 5662 5656 5651 5646 5642 5639 5631 5625 5618 5613 5606 5600 5594 5587 5581 5575 5568 5562 5556 5550 5544 5538 5532 5527 5521 5516 5512 5507 5503 5500 5497 5494
5681 5677 5672 5667 5662 5657 5651 5645 5639 5633 5629 5625 5618 5611 5605 5599 5592 5585 5579 5572 5565 5558 5551 5545 5538 5531 5525 5519 5513 5507 5501 5496 5491 5486 5482 5478 5475 5473
5671 5666 5661 5656 5651 5645 5640 5634 5627 5621 5615 5611 5605 5598 5591 5584 5577 5570 5563 5556 5549 5542 5534 5527 5520 5513 5506 5499 5492 5486 5480 5475 5470 5466 5461 5458 5455 5452
5660 5655 5650 5645 5640 5634 5628 5621 5615 5608 5602 5596 5591 5584 5577 5569 5562 5555 5547 5540 5532 5524 5517 5509 5501 5494 5486 5480 5473 5466 5460 5455 5450 5445 5440 5436 5433 5431
5649 5644 5639 5633 5628 5622 5615 5609 5602 5595 5588 5582 5576 5569 5561 5554 5546 5539 5532 5523 5515 5507 5499 5491 5483 5475 5468 5461 5454 5447 5441 5435 5430 5425 5420 5416 5412 5410
5638 5633 5627 5621 5615 5609 5602 5596 5589 5582 5575 5567 5561 5553 5546 5538 5530 5523 5515 5508 5499 5490 5483 5474 5466 5458 5450 5443 5436 5429 5423 5417 5411 5405 5400 5396 5393 5390
5626 5621 5615 5609 5603 5596 5589 5582 5575 5567 5560 5553 5546 5538 5530 5522 5514 5506 5498 5491 5484 5476 5466 5458 5448 5441 5433 5425 5418 5411 5405 5399 5393 5388 5383 5379 5376 5373
5614 5608 5603 5596 5590 5583 5576 5569 5561 5552 5545 5538 5530 5522 5514 5507 5499 5491 5481 5472 5464 5455 5447 5440 5431 5423 5415 5408 5401 5395 5388 5382 5377 5373 5368 5365 5361 5359
5601 5596 5590 5583 5576 5570 5563 5555 5547 5539 5531 5523 5516 5507 5499 5490 5481 5473 5464 5456 5447 5437 5428 5422 5415 5407 5399 5392 5385 5379 5373 5368 5363 5359 5355 5351 5348 5345
5589 5582 5576 5570 5563 5556 5549 5542 5534 5526 5517 5509 5500 5492 5483 5474 5465 5456 5447 5438 5431 5422 5412 5405 5398 5391 5385 5377 5370 5364 5359 5354 5350 5346 5342 5339 5336 5334
5576 5570 5563 5556 5549 5542 5534 5527 5520 5512 5503 5495 5486 5477 5468 5459 5449 5439 5430 5422 5414 5407 5398 5390 5383 5376 5372 5365 5357 5352 5346 5342 5338 5335 5331 5328 5325 5323
5563 5557 5550 5543 5536 5528 5520 5513 5505 5497 5489 5481 5472 5463 5454 5444 5434 5424 5415 5406 5398 5391 5383 5376 5369 5362 5356 5352 5347 5341 5336 5332 5328 5325 5321 5318 5315 5313
5550 5543 5536 5529 5522 5514 5506 5498 5491 5482 5474 5466 5457 5448 5438 5429 5419 5410 5401 5392 5384 5377 5369 5362 5356 5350 5345 5340 5336 5331 5326 5323 5319 5316 5312 5309 5306 5304
5536 5529 5523 5515 5508 5500 5492 5484 5476 5468 5459 5450 5441 5432 5422 5413 5404 5395 5387 5379 5371 5363 5356 5350 5344 5339 5334 5330 5326 5322 5318 5314 5310 5307 5304 5301 5299 5296
5522 5516 5509 5501 5494 5486 5478 5470 5462 5453 5444 5435 5426 5417 5407 5398 5390 5382 5374 5367 5360 5352 5345 5339 5334 5329 5325 5320 5317 5313 5309 5306 5303 5300 5297 5295 5292 5290
5509 5502 5495 5488 5480 5472 5464 5456 5447 5438 5429 5420 5411 5402 5393 5384 5376 5369 5362 5355 5349 5343 5337 5331 5325 5321 5316 5313 5309 5305 5301 5298 5295 5293 5291 5289 5287 5285
5495 5488 5481 5474 5466 5458 5450 5441 5432 5423 5414 5405 5397 5388 5380 5372 5365 5358 5351 5345 5339 5334 5328 5323 5318 5314 5309 5305 5302 5298 5295 5292 5289 5287 5285 5284 5282 5281
5481 5474 5467 5460 5452 5444 5435 5427 5418 5410 5401 5392 5384 5376 5368 5360 5353 5347 5341 5335 5330 5325 5320 5315 5311 5306 5303 5299 5296 5292 5289 5287 5285 5283 5281 5279 5278 5277
5467 5460 5453 5446 5438 5430 5421 5413 5405 5397 5389 5380 5372 5365 5357 5350 5343 5337 5332 5326 5322 5317 5312 5308 5303 5299 5296 5293 5290 5287 5284 5282 5280 5279 5277 5276 5275 5274
5453 5446 5439 5431 5424 5416 5408 5400 5392 5385 5377 5369 5361 5354 5347 5340 5334 5328 5323 5318 5314 5309 5305 5301 5296 5293 5289 5287 5285 5283 5280 5278 5276 5275 5274 5273 5272 5271
5439 5432 5425 5417 5410 5402 5395 5388 5381 5373 5366 5358 5351 5344 5337 5331 5325 5320 5315 5310 5306 5302 5298 5294 5290 5287 5284 5282 5280 5278 5277 5275 5273 5272 5271 5271 5270 5269
5425 5418 5411 5404 5397 5390 5383 5376 5369 5362 5355 5348 5341 5334 5328 5322 5317 5312 5307 5303 5299 5296 5292 5288 5285 5282 5280 5277 5276 5274 5273 5272 5271 5270 5269 5268 5267 5267